Change the Weather History Date:

Sunday, December 8, 2013

  Actual Average Record
Temperature  
Mean Temperature 77 °F -  
Max Temperature 82 °F - - ()
Min Temperature 72 °F - - ()
Cooling Degree Days 12    
Growing Degree Days 27 (Base 50)    
Moisture  
Dew Point 73 °F    
Average Humidity 85    
Maximum Humidity 100    
Minimum Humidity 67    
Precipitation  
Precipitation 0.00 in - - ()
Sea Level Pressure  
Sea Level Pressure 29.78 in    
Wind  
Wind Speed 1 mph ()    
Max Wind Speed 7 mph    
Max Gust Speed -    
Visibility 4.9 miles    
Events Rain , Thunderstorm    
T = Trace of Precipitation, MM = Missing Value Source: Averaged Metar Reports

Daily Weather History Graph

Daily Weather History Graph

Search for Another Location

Airport or City:

Trip Planner

Search our weather history database for the weather conditions in past years. The results will help you decide how hot, cold, wet, or windy it might be!

Date:

Astronomy

Dec. 08, 2013 Rise Set
Actual Time 6:03 AM WIB 6:09 PM WIB
Civil Twilight 5:40 AM WIB 6:31 PM WIB
Nautical Twilight 5:14 AM WIB 6:57 PM WIB
Astronomical Twilight 4:48 AM WIB 7:23 PM WIB
Moon 10:58 AM WIB (12/8) 11:22 PM WIB (12/8)
Length of Visible Light 12h 50m
Length of Day
12h 05m
Waxing Crescent, 34% of the Moon is Illuminated
Dec 8
Waxing Crescent
Dec 9
First Quarter
Dec 17
Full
Dec 25
Last Quarter
Jan 1
New

Hourly Weather History & Observations

Time (WIB) Temp. Heat Index Dew Point Humidity Pressure Visibility Wind Dir Wind Speed Gust Speed Precip Events Conditions
1:00 AM 78 °F - 76 °F 94% 29.78 in 4 mi Calm Calm - -   Partly Cloudy
4:00 AM 73 °F - 72 °F 95% 29.75 in 2 mi Calm Calm - - Rain , Thunderstorm Thunderstorms and Rain
6:00 AM 73.4 °F - 71.6 °F 94% 29.77 in 4.3 mi Calm Calm - N/A Rain Light Rain
7:00 AM 73 °F - 72 °F 95% 29.78 in 5 mi Calm Calm - - Rain Light Rain
7:00 AM 73.4 °F - 71.6 °F 94% 29.77 in 5.0 mi Calm Calm - N/A   Scattered Clouds
7:30 AM 73.4 °F - 71.6 °F 94% 29.77 in 5.0 mi Calm Calm - N/A   Scattered Clouds
8:00 AM 73.4 °F - 73.4 °F 100% 29.77 in 6.2 mi Calm Calm - N/A   Scattered Clouds
10:00 AM 77 °F - 74 °F 89% 29.83 in 6 mi Calm Calm - -   Partly Cloudy
10:00 AM 77.0 °F - 73.4 °F 89% 29.83 in 5.0 mi Calm Calm - N/A   Scattered Clouds
11:00 AM 80.6 °F 85.4 °F 73.4 °F 79% 29.80 in 6.2 mi East 4.6 mph - N/A   Mostly Cloudy
11:30 AM 80.6 °F 85.4 °F 73.4 °F 79% 29.80 in 6.2 mi East 4.6 mph - N/A   Mostly Cloudy
12:00 PM 80.6 °F 85.4 °F 73.4 °F 79% 29.80 in 5.0 mi Calm Calm - N/A   Mostly Cloudy
12:30 PM 80.6 °F 85.4 °F 73.4 °F 79% 29.80 in 5.0 mi Calm Calm - N/A   Mostly Cloudy
1:00 PM 81 °F - 73 °F 70% 29.79 in 5 mi Calm Calm - -   Overcast
1:00 PM 80.6 °F 85.4 °F 73.4 °F 79% 29.77 in 5.0 mi Calm Calm - N/A   Mostly Cloudy
2:00 PM 82.4 °F 88.2 °F 73.4 °F 74% 29.74 in 6.2 mi East 5.8 mph - N/A   Mostly Cloudy
3:00 PM 82.4 °F 88.2 °F 73.4 °F 74% 29.71 in 6.2 mi ESE 6.9 mph - N/A   Scattered Clouds
4:00 PM 82 °F - 73 °F 67% 29.73 in 6 mi Calm Calm - -   Overcast
4:00 PM 82.4 °F 88.2 °F 73.4 °F 74% 29.71 in 6.2 mi Calm Calm - N/A   Scattered Clouds
5:00 PM 80.6 °F 86.2 °F 75.2 °F 84% 29.74 in 6.2 mi East 5.8 mph - N/A   Scattered Clouds
6:00 PM 78.8 °F - 73.4 °F 83% 29.77 in 5.0 mi Calm Calm - N/A   Scattered Clouds
7:00 PM 78 °F - 74 °F 85% 29.78 in 4 mi Calm Calm - -   Mostly Cloudy
7:00 PM 78.8 °F - 75.2 °F 89% 29.77 in 4.3 mi Calm Calm - N/A   Scattered Clouds
8:00 PM 77.0 °F - 73.4 °F 89% 29.80 in 4.3 mi Calm Calm - N/A   Scattered Clouds
9:00 PM 77.0 °F - 73.4 °F 89% 29.80 in 4.3 mi Calm Calm - N/A   Scattered Clouds
9:30 PM 77.0 °F - 73.4 °F 89% 29.83 in 4.3 mi Calm Calm - N/A   Scattered Clouds
10:00 PM 77 °F - 74 °F 87% 29.84 in 4 mi Calm Calm - -   Partly Cloudy
10:00 PM 77.0 °F - 73.4 °F 89% 29.83 in 4.3 mi Calm Calm - N/A   Scattered Clouds
10:30 PM 77.0 °F - 73.4 °F 89% 29.83 in 4.3 mi Calm Calm - N/A   Scattered Clouds
11:00 PM 77.0 °F - 73.4 °F 89% 29.83 in 4.3 mi Calm Calm - N/A   Scattered Clouds
11:30 PM 77.0 °F - 73.4 °F 89% 29.80 in 4.3 mi Calm Calm - N/A   Scattered Clouds